Location: Newark
(47.5347°N, 5.5339°E)
Time: 20:46:03
(UTC+00:00)

OTV 5 (USA 277) - Visible Passes

Search period start: 14 October 2019 00:00
Search period end: 24 October 2019 00:00
Orbit: 310 x 324 km, 54.5° (Epoch: 08 October)

Date Brightness Start Highest point End Pass type
(mag) Time Alt. Az. Time Alt. Az. Time Alt. Az.
14 Oct ? 03:38:55 16° NNE 03:38:55 16° NNE 03:39:56 10° NE visible
14 Oct ? 05:10:10 10° NW 05:12:45 35° NNE 05:15:19 10° E visible
15 Oct ? 03:53:05 20° NNE 03:53:05 20° NNE 03:54:54 10° ENE visible
16 Oct ? 04:07:19 28° N 04:07:30 28° NNE 04:09:56 10° E visible
17 Oct ? 04:21:37 39° NNW 04:22:12 47° NNE 04:24:52 10° ESE visible
18 Oct ? 04:36:01 42° WNW 04:36:48 80° SSW 04:39:32 10° SE visible
19 Oct ? 04:50:31 27° WSW 04:51:17 32° SW 04:53:46 10° SSE visible
20 Oct ? 03:34:13 11° ESE 03:34:13 11° ESE 03:34:21 10° ESE visible
20 Oct ? 05:05:08 14° WSW 05:05:37 14° SW 05:07:11 10° SSW visible
